Regional Weather Roundup
Issued by NWS

Home | Current Version | Previous Version | Text Only | Print | Product List | Glossary Off
Versions: 1 2 3 4 5 6 7 8 9 10 11 12 13 14 15 16 17 18 19 20 21 22 23 24 25 26 27 28 29 30 31 32 33 34 35 36 37 38 39 40 41 42 43 44 45 46 47 48 49 50

000
ASUS43 KDTX 071601
RWRMI
MICHIGAN HOURLY REGIONAL WEATHER ROUNDUP
NATIONAL WEATHER SERVICE DETROIT/PONTIAC MI
1200 PM EDT TUE JUL 07 2015

NOTE: "FAIR" INDICATES FEW OR NO CLOUDS BELOW 12,000 FEET WITH NO
SIGNIFICANT WEATHER AND/OR OBSTRUCTION TO VISIBILITY.

MIZ047>049-052>055-059>063-066>070-074>076-081>083-071700-
SOUTHEAST LOWER MICHIGAN

CITY           SKY/WX    TMP DP  RH WIND       PRES   REMARKS
ADRIAN         LGT RAIN  73  71  93 SW7       29.89R
ALMA           CLOUDY    62  60  93 NW12      29.91R
ANN ARBOR      LGT RAIN  73  71  93 SW7       29.87R
BAD AXE        LGT RAIN  61  59  94 N10       29.87R
CARO           RAIN      63  62  96 N8        29.86R
DETROIT CITY   LGT RAIN  77  71  82 W8        29.85R
DETROIT        LGT RAIN  77  72  84 SW13      29.86R
FLINT          RAIN      67  63  87 NW15      29.86R FOG
GROSSE ILE     LGT RAIN  77  73  88 SW9       29.85S
HILLSDALE      LGT RAIN  73  73 100 SW8       29.90R
HOWELL         HVY RAIN  71  70  97 W8        29.85R

CITY           SKY/WX    TMP DP  RH WIND       PRES   REMARKS
JACKSON        LGT RAIN  72  70  93 SW9       29.87S FOG
LAMBERTVILLE   LGT RAIN  73  70  88 SW8       29.90R
LANSING        LGT RAIN  61  59  93 N8        29.90R FOG
LAPEER         RAIN      72  69  92 W5        29.84S
MASON          RAIN      61  59  95 NW12      29.90R
MONROE         LGT RAIN  73  71  93 SW7       29.87R
MT. CLEMENS    LGT RAIN  77  73  87 SW10      29.82S FOG
PONTIAC        LGT RAIN  73  71  93 S7        29.84F FOG
PORT HOPE        N/A     62  61  96 NW7       29.84R
PORT HURON     LGT RAIN  73  72  94 SW3       29.84S
TRI CITIES     LGT RAIN  63  60  90 NW14      29.89R FOG
MIDLAND        CLOUDY    63  60  88 NW12      29.88R
TROY           LGT RAIN  75  73  92 SW8       29.87R
SAGINAW HB     DRIZZLE  N/A N/A N/A NW9       29.87R
$$
MIZ043>046-050>051-056>058-064>065-071>073-077>080-071700-
SOUTHWEST LOWER MICHIGAN

CITY           SKY/WX    TMP DP  RH WIND       PRES   REMARKS
BATTLE CREEK   LGT RAIN  64  61  90 NW12      29.92R
BENTON HARBOR  CLOUDY    62  55  77 N10G18    29.95S
BIG RAPIDS     PTSUNNY   63  53  70 N12G20    29.93R
COLDWATER      LGT RAIN  68  67  95 NW12      29.90R
FREMONT        FAIR      65  52  61 N13G21    29.95R
HOLLAND        PTSUNNY   67  53  61 N12G18    29.95R
GRAND RAPIDS   CLOUDY    65  57  75 N9        29.93R
IONIA          CLOUDY    61  60  94 N10G17    29.90S
KALAMAZOO      CLOUDY    62  59  90 NW12      29.92R FOG
LUDINGTON      SUNNY     62  51  68 N18G28    29.99S
MARSHALL       RAIN      67  65  93 W9G16     29.89R
MOUNT PLEASANT CLOUDY    63  56  80 NW7       29.90R
MUSKEGON       MOSUNNY   69  50  50 NW21G28   29.95S
SOUTH HAVEN    CLOUDY    63  55  75 N13G22    29.95R
$$
MIZ016>042-071700-
NORTHERN LOWER MICHIGAN

CITY           SKY/WX    TMP DP  RH WIND       PRES   REMARKS
ALPENA         CLOUDY    60  56  86 NW10G18   29.89R
BEAVER ISLAND  PTSUNNY   63  49  61 N13G18    29.98R
BELLAIRE       CLOUDY    60  52  73 N8        29.96R
CADILLAC       PTSUNNY   61  52  72 N13G18    29.95R
CHARLEVOIX     SUNNY     61  51  69 N14G20    30.00R
FRANKFORT      SUNNY     63  47  57 N14G22    30.00S
GAYLORD        CLOUDY    57  53  86 NW7       29.94R
GRAYLING       CLOUDY    60  53  79 NW12G20   29.94R
HARBOR SPRINGS PTSUNNY   62  52  70 NW8G16    29.94S
HOUGHTON LAKE  CLOUDY    59  54  83 NW14G21   29.93R
MANISTEE       SUNNY     59  48  67 N13G22    30.00R
OSCODA         CLOUDY    62  60  94 NW10      29.85
PELLSTON       PTSUNNY   63  51  65 NW20G25   29.94S
ROGERS CITY    CLOUDY    58  55  91 NW10G16   29.91R
TRAVERSE CITY  MOSUNNY   63  51  65 N13G20    29.96R
$$
MIZ007>008-015-071700-
EASTERN UPPER MICHIGAN

CITY           SKY/WX    TMP DP  RH WIND       PRES   REMARKS
KINROSS        PTSUNNY   59  52  77 NW20G26   29.93R
MACKINAC ISLAN MOSUNNY   62  52  69 N9G21     29.93R
NEWBERRY       CLOUDY    58  48  69 N12G22    29.98R
S. S. MARIE    PTSUNNY   61  51  70 NW12      29.92R
$$
MIZ004>006-011>014-085-071700-
CENTRAL UPPER MICHIGAN

CITY           SKY/WX    TMP DP  RH WIND       PRES   REMARKS
MANISTIQUE     PTSUNNY   62  46  54 N16G29    29.98S
ESCANABA       PTSUNNY   59  46  63 N15G22    30.02S
MENOMINEE      PTSUNNY   61  46  59 N13G18    30.03S
SAWYER-GWINN   CLOUDY    55  45  67 N18G24    30.06R
$$
MIZ001>003-009>011-084-071700-
WESTERN UPPER MICHIGAN

CITY           SKY/WX    TMP DP  RH WIND       PRES   REMARKS
IRON MOUNTAIN  PTSUNNY   61  46  57 N16       30.05R
HOUGHTON       SUNNY     58  46  64 N17       30.08S
COPPER HARBOR    N/A     55  46  71 N16       30.06S
IRONWOOD       MOSUNNY   57  46  67 N8        30.11R
$$

ABBREVIATIONS USED IN REMARKS
   TC - TEMPERATURE IN CELSIUS
  WCI - WIND CHILL INDEX
   HX - HEAT INDEX
  VSB - VISIBILITY




USA.gov is the U.S. government's official web portal to all federal, state and local government web resources and services.